Time,TemperatureF,DewpointF,PressureIn,WindDirection,WindDirectionDegrees,WindSpeedMPH,WindSpeedGustMPH,Humidity,HourlyPrecipIn,Conditions,Clouds,dailyrainin,SoftwareType,DateUTC
2013-02-14 00:00:00,31.7,25.9,29.80,SSW,203,0.0,0.7,79,0.00,,,0.00,WUHU216HW,2013-02-14 05:00:00,
2013-02-14 00:05:00,31.9,26.1,29.81,SSW,203,0.0,0.7,79,0.00,,,0.00,WUHU216HW,2013-02-14 05:05:00,
2013-02-14 00:10:00,31.9,25.8,29.79,WSW,248,0.0,0.4,78,0.00,,,0.00,WUHU216HW,2013-02-14 05:10:00,
2013-02-14 00:15:00,31.9,25.8,29.81,SSE,158,0.2,1.1,78,0.00,,,0.00,WUHU216HW,2013-02-14 05:15:00,
2013-02-14 00:20:00,31.9,25.8,29.80,WSW,248,0.4,1.1,78,0.00,,,0.00,WUHU216HW,2013-02-14 05:20:00,
2013-02-14 00:25:00,31.9,25.8,29.80,SW,225,0.0,0.4,78,0.00,,,0.00,WUHU216HW,2013-02-14 05:25:00,
2013-02-14 00:30:00,31.9,25.8,29.80,South,180,0.2,1.3,78,0.00,,,0.00,WUHU216HW,2013-02-14 05:30:00,
2013-02-14 00:35:00,31.7,25.7,29.81,SE,135,0.2,1.3,78,0.00,,,0.00,WUHU216HW,2013-02-14 05:35:00,
2013-02-14 00:40:00,31.7,25.7,29.81,WNW,293,0.0,0.4,78,0.00,,,0.00,WUHU216HW,2013-02-14 05:40:00,
2013-02-14 00:45:00,31.7,25.7,29.81,WNW,293,0.0,0.4,78,0.00,,,0.00,WUHU216HW,2013-02-14 05:45:00,
2013-02-14 00:50:00,31.5,25.5,29.80,NW,315,0.0,2.2,78,0.00,,,0.00,WUHU216HW,2013-02-14 05:50:00,
2013-02-14 00:55:00,31.5,25.5,29.81,ESE,113,0.0,2.2,78,0.00,,,0.00,WUHU216HW,2013-02-14 05:55:00,
2013-02-14 01:00:00,31.5,25.5,29.81,WNW,293,0.2,0.7,78,0.00,,,0.00,WUHU216HW,2013-02-14 06:00:00,
2013-02-14 01:05:00,31.5,25.5,29.81,NW,315,0.4,0.7,78,0.00,,,0.00,WUHU216HW,2013-02-14 06:05:00,
2013-02-14 01:10:00,31.3,25.3,29.80,NW,315,0.0,0.4,78,0.00,,,0.00,WUHU216HW,2013-02-14 06:10:00,
2013-02-14 01:15:00,31.3,25.3,29.80,NNE,23,0.4,0.7,78,0.00,,,0.00,WUHU216HW,2013-02-14 06:15:00,
2013-02-14 01:21:00,31.3,25.3,29.80,North,0,0.2,0.7,78,0.00,,,0.00,WUHU216HW,2013-02-14 06:21:00,
2013-02-14 01:26:00,31.3,25.3,29.80,SE,135,1.1,1.1,78,0.00,,,0.00,WUHU216HW,2013-02-14 06:26:00,
2013-02-14 01:31:00,31.3,25.3,29.80,NNE,23,0.9,1.1,78,0.00,,,0.00,WUHU216HW,2013-02-14 06:31:00,
2013-02-14 01:36:00,31.3,25.3,29.80,North,0,0.4,0.9,78,0.00,,,0.00,WUHU216HW,2013-02-14 06:36:00,
2013-02-14 01:41:00,31.3,25.3,29.80,NNW,338,0.4,0.9,78,0.00,,,0.00,WUHU216HW,2013-02-14 06:41:00,
2013-02-14 01:46:00,31.1,25.1,29.80,NNW,338,0.0,0.7,78,0.00,,,0.00,WUHU216HW,2013-02-14 06:46:00,
2013-02-14 01:51:00,31.1,25.1,29.81,NNE,23,0.0,0.7,78,0.00,,,0.00,WUHU216HW,2013-02-14 06:51:00,
2013-02-14 01:56:00,31.0,25.2,29.81,SW,225,0.9,1.1,79,0.00,,,0.00,WUHU216HW,2013-02-14 06:56:00,
2013-02-14 02:01:00,31.0,25.2,29.81,NNE,23,0.7,1.1,79,0.00,,,0.00,WUHU216HW,2013-02-14 07:01:00,
2013-02-14 02:06:00,31.0,25.2,29.81,NNW,338,0.9,1.1,79,0.00,,,0.00,WUHU216HW,2013-02-14 07:06:00,
2013-02-14 02:11:00,30.8,25.0,29.76,NE,45,0.9,0.9,79,0.00,,,0.00,WUHU216HW,2013-02-14 07:11:00,
2013-02-14 02:16:00,30.8,25.4,29.76,NE,45,0.0,1.3,80,0.00,,,0.00,WUHU216HW,2013-02-14 07:16:00,
2013-02-14 02:21:00,30.6,24.8,29.76,WNW,293,0.2,1.3,79,0.00,,,0.00,WUHU216HW,2013-02-14 07:21:00,
2013-02-14 02:26:00,30.6,25.2,29.78,NNE,23,0.4,1.1,80,0.00,,,0.00,WUHU216HW,2013-02-14 07:26:00,
2013-02-14 02:31:00,30.6,25.2,29.77,North,0,0.4,0.4,80,0.00,,,0.00,WUHU216HW,2013-02-14 07:31:00,
2013-02-14 02:36:00,30.4,25.0,29.77,NW,315,0.0,0.4,80,0.00,,,0.00,WUHU216HW,2013-02-14 07:36:00,
2013-02-14 02:41:00,30.4,25.0,29.77,WNW,293,0.2,0.4,80,0.00,,,0.00,WUHU216HW,2013-02-14 07:41:00,
2013-02-14 02:46:00,30.4,25.0,29.77,NE,45,0.7,0.7,80,0.00,,,0.00,WUHU216HW,2013-02-14 07:46:00,
2013-02-14 02:51:00,30.2,25.1,29.77,West,270,0.9,0.9,81,0.00,,,0.00,WUHU216HW,2013-02-14 07:51:00,
2013-02-14 02:56:00,30.2,25.1,29.77,NNE,23,0.2,0.9,81,0.00,,,0.00,WUHU216HW,2013-02-14 07:56:00,
2013-02-14 03:01:00,30.2,25.1,29.76,WNW,293,0.9,0.9,81,0.00,,,0.00,WUHU216HW,2013-02-14 08:01:00,
2013-02-14 03:06:00,30.1,24.9,29.77,ESE,113,0.4,0.9,81,0.00,,,0.00,WUHU216HW,2013-02-14 08:06:00,
2013-02-14 03:11:00,30.1,24.9,29.77,WNW,293,0.0,1.1,81,0.00,,,0.00,WUHU216HW,2013-02-14 08:11:00,
2013-02-14 03:16:00,30.1,24.9,29.77,NNW,338,0.0,1.1,81,0.00,,,0.00,WUHU216HW,2013-02-14 08:16:00,
2013-02-14 03:21:00,30.1,24.7,29.78,NNW,338,0.0,0.4,80,0.00,,,0.00,WUHU216HW,2013-02-14 08:21:00,
2013-02-14 03:26:00,29.9,24.5,29.78,NE,45,0.4,0.4,80,0.00,,,0.00,WUHU216HW,2013-02-14 08:26:00,
2013-02-14 03:31:00,29.9,24.5,29.78,WNW,293,0.4,1.1,80,0.00,,,0.00,WUHU216HW,2013-02-14 08:31:00,
2013-02-14 03:36:00,29.9,24.5,29.76,North,0,0.4,1.1,80,0.00,,,0.00,WUHU216HW,2013-02-14 08:36:00,
2013-02-14 03:41:00,29.9,24.5,29.79,West,270,0.0,2.7,80,0.00,,,0.00,WUHU216HW,2013-02-14 08:41:00,
2013-02-14 03:46:00,29.9,24.5,29.78,NW,315,0.9,2.7,80,0.00,,,0.00,WUHU216HW,2013-02-14 08:46:00,
2013-02-14 03:51:00,29.9,24.8,29.79,NNE,23,0.2,1.3,81,0.00,,,0.00,WUHU216HW,2013-02-14 08:51:00,
2013-02-14 03:56:00,29.9,24.5,29.78,NNE,23,0.4,1.8,80,0.00,,,0.00,WUHU216HW,2013-02-14 08:56:00,
2013-02-14 04:01:00,29.9,24.5,29.78,North,0,0.4,1.8,80,0.00,,,0.00,WUHU216HW,2013-02-14 09:01:00,
2013-02-14 04:06:00,29.9,24.5,29.78,West,270,1.1,1.3,80,0.00,,,0.00,WUHU216HW,2013-02-14 09:06:00,
2013-02-14 04:11:00,29.7,24.3,29.78,WNW,293,0.4,2.0,80,0.00,,,0.00,WUHU216HW,2013-02-14 09:11:00,
2013-02-14 04:16:00,29.7,24.3,29.79,ESE,113,0.2,2.0,80,0.00,,,0.00,WUHU216HW,2013-02-14 09:16:00,
2013-02-14 04:21:00,29.7,24.3,29.78,NW,315,0.2,0.7,80,0.00,,,0.00,WUHU216HW,2013-02-14 09:21:00,
2013-02-14 04:26:00,29.7,24.3,29.78,NNW,338,0.0,1.1,80,0.00,,,0.00,WUHU216HW,2013-02-14 09:26:00,
2013-02-14 04:31:00,29.5,24.1,29.78,WNW,293,0.0,1.1,80,0.00,,,0.00,WUHU216HW,2013-02-14 09:31:00,
2013-02-14 04:36:00,29.5,24.1,29.79,East,90,0.0,0.4,80,0.00,,,0.00,WUHU216HW,2013-02-14 09:36:00,
2013-02-14 04:41:00,29.5,23.8,29.79,SSW,203,0.4,0.4,79,0.00,,,0.00,WUHU216HW,2013-02-14 09:41:00,
2013-02-14 04:46:00,29.3,23.9,29.79,SSW,203,0.0,0.4,80,0.00,,,0.00,WUHU216HW,2013-02-14 09:46:00,
2013-02-14 04:51:00,29.2,23.8,29.79,SSW,203,0.0,0.2,80,0.00,,,0.00,WUHU216HW,2013-02-14 09:51:00,
2013-02-14 04:56:00,29.2,23.8,29.83,SW,225,0.0,0.7,80,0.00,,,0.00,WUHU216HW,2013-02-14 09:56:00,
2013-02-14 05:01:00,29.2,23.8,29.84,NW,315,0.2,0.7,80,0.00,,,0.00,WUHU216HW,2013-02-14 10:01:00,
2013-02-14 05:06:00,29.2,23.8,29.83,NNW,338,0.0,0.4,80,0.00,,,0.00,WUHU216HW,2013-02-14 10:06:00,
2013-02-14 05:11:00,29.2,23.8,29.83,NW,315,0.0,0.4,80,0.00,,,0.00,WUHU216HW,2013-02-14 10:11:00,
2013-02-14 05:16:00,29.0,23.9,29.84,NW,315,0.0,0.4,81,0.00,,,0.00,WUHU216HW,2013-02-14 10:16:00,
2013-02-14 05:21:00,28.8,23.7,29.84,NW,315,0.0,0.4,81,0.00,,,0.00,WUHU216HW,2013-02-14 10:21:00,
2013-02-14 05:26:00,28.8,23.7,29.84,NW,315,0.0,0.4,81,0.00,,,0.00,WUHU216HW,2013-02-14 10:26:00,
2013-02-14 05:31:00,28.6,23.5,29.84,NW,315,0.0,0.4,81,0.00,,,0.00,WUHU216HW,2013-02-14 10:31:00,
2013-02-14 05:36:00,28.4,23.3,29.84,NW,315,0.0,0.4,81,0.00,,,0.00,WUHU216HW,2013-02-14 10:36:00,
2013-02-14 05:41:00,28.4,23.3,29.83,NW,315,0.0,0.2,81,0.00,,,0.00,WUHU216HW,2013-02-14 10:41:00,
2013-02-14 05:46:00,28.3,23.1,29.83,NW,315,0.0,0.2,81,0.00,,,0.00,WUHU216HW,2013-02-14 10:46:00,
2013-02-14 05:51:00,28.3,23.4,29.84,NW,315,0.0,0.2,82,0.00,,,0.00,WUHU216HW,2013-02-14 10:51:00,
2013-02-14 05:56:00,28.1,23.2,29.83,NW,315,0.0,0.0,82,0.00,,,0.00,WUHU216HW,2013-02-14 10:56:00,
2013-02-14 06:01:00,28.1,23.2,29.83,NW,315,0.0,0.2,82,0.00,,,0.00,WUHU216HW,2013-02-14 11:01:00,
2013-02-14 06:06:00,27.9,23.0,29.84,NW,315,0.2,0.2,82,0.00,,,0.00,WUHU216HW,2013-02-14 11:06:00,
2013-02-14 06:11:00,27.7,22.9,29.83,NW,315,0.0,0.2,82,0.00,,,0.00,WUHU216HW,2013-02-14 11:11:00,
2013-02-14 06:16:00,27.7,23.2,29.82,NW,315,0.2,0.2,83,0.00,,,0.00,WUHU216HW,2013-02-14 11:16:00,
2013-02-14 06:21:00,27.7,23.2,29.84,NW,315,0.4,0.4,83,0.00,,,0.00,WUHU216HW,2013-02-14 11:21:00,
2013-02-14 06:26:00,27.5,23.1,29.84,NW,315,0.2,0.4,83,0.00,,,0.00,WUHU216HW,2013-02-14 11:26:00,
2013-02-14 06:31:00,27.5,23.1,29.84,NW,315,0.0,0.4,83,0.00,,,0.00,WUHU216HW,2013-02-14 11:31:00,
2013-02-14 06:36:00,27.5,23.1,29.84,NW,315,0.0,0.4,83,0.00,,,0.00,WUHU216HW,2013-02-14 11:36:00,
2013-02-14 06:41:00,27.4,23.1,29.85,NW,315,0.0,0.4,84,0.00,,,0.00,WUHU216HW,2013-02-14 11:41:00,
2013-02-14 06:46:00,27.4,23.1,29.86,NW,315,0.4,0.4,84,0.00,,,0.00,WUHU216HW,2013-02-14 11:46:00,
2013-02-14 06:51:00,27.4,22.9,29.86,NW,315,0.4,0.7,83,0.00,,,0.00,WUHU216HW,2013-02-14 11:51:00,
2013-02-14 06:56:00,27.2,22.7,29.87,NW,315,0.0,0.7,83,0.00,,,0.00,WUHU216HW,2013-02-14 11:56:00,
2013-02-14 07:01:00,27.2,23.0,29.87,NW,315,0.0,0.9,84,0.00,,,0.00,WUHU216HW,2013-02-14 12:01:00,
2013-02-14 07:06:00,27.2,23.0,29.86,NW,315,0.0,0.9,84,0.00,,,0.00,WUHU216HW,2013-02-14 12:06:00,
2013-02-14 07:11:00,27.2,22.7,29.87,NW,315,0.0,0.7,83,0.00,,,0.00,WUHU216HW,2013-02-14 12:11:00,
2013-02-14 07:16:00,27.0,22.8,29.87,NW,315,0.0,0.0,84,0.00,,,0.00,WUHU216HW,2013-02-14 12:16:00,
2013-02-14 07:21:00,27.0,23.0,29.87,NW,315,0.4,0.4,85,0.00,,,0.00,WUHU216HW,2013-02-14 12:21:00,
2013-02-14 07:26:00,27.0,22.8,29.88,NW,315,0.0,0.4,84,0.00,,,0.00,WUHU216HW,2013-02-14 12:26:00,
2013-02-14 07:31:00,27.0,22.8,29.88,NW,315,0.0,1.1,84,0.00,,,0.00,WUHU216HW,2013-02-14 12:31:00,
2013-02-14 07:36:00,27.0,22.8,29.89,NW,315,0.0,1.1,84,0.00,,,0.00,WUHU216HW,2013-02-14 12:36:00,
2013-02-14 07:41:00,27.0,22.8,29.87,NW,315,0.0,0.4,84,0.00,,,0.00,WUHU216HW,2013-02-14 12:41:00,
2013-02-14 07:46:00,27.0,23.0,29.89,NW,315,0.0,0.4,85,0.00,,,0.00,WUHU216HW,2013-02-14 12:46:00,
2013-02-14 07:51:00,26.8,22.9,29.89,NW,315,0.0,0.9,85,0.00,,,0.00,WUHU216HW,2013-02-14 12:51:00,
2013-02-14 07:56:00,26.8,22.6,29.89,NW,315,0.0,0.9,84,0.00,,,0.00,WUHU216HW,2013-02-14 12:56:00,
2013-02-14 08:01:00,26.8,22.9,29.89,NW,315,0.0,0.0,85,0.00,,,0.00,WUHU216HW,2013-02-14 13:01:00,
2013-02-14 08:06:00,26.6,22.7,29.89,NW,315,0.0,0.0,85,0.00,,,0.00,WUHU216HW,2013-02-14 13:06:00,
2013-02-14 08:11:00,26.8,22.9,29.91,NW,315,0.0,0.0,85,0.00,,,0.00,WUHU216HW,2013-02-14 13:11:00,
2013-02-14 08:16:00,26.8,22.9,29.90,NW,315,0.0,0.4,85,0.00,,,0.00,WUHU216HW,2013-02-14 13:16:00,
2013-02-14 08:21:00,27.0,23.0,29.90,NW,315,0.0,0.4,85,0.00,,,0.00,WUHU216HW,2013-02-14 13:21:00,
2013-02-14 08:26:00,27.0,23.0,29.91,NW,315,0.0,0.2,85,0.00,,,0.00,WUHU216HW,2013-02-14 13:26:00,
2013-02-14 08:31:00,27.0,23.0,29.91,NW,315,0.0,0.0,85,0.00,,,0.00,WUHU216HW,2013-02-14 13:31:00,
2013-02-14 08:36:00,27.2,23.2,29.91,NW,315,0.0,0.0,85,0.00,,,0.00,WUHU216HW,2013-02-14 13:36:00,
2013-02-14 08:41:00,27.4,23.1,29.92,NW,315,0.0,0.0,84,0.00,,,0.00,WUHU216HW,2013-02-14 13:41:00,
2013-02-14 08:46:00,27.4,23.1,29.92,NW,315,0.0,0.0,84,0.00,,,0.00,WUHU216HW,2013-02-14 13:46:00,
2013-02-14 08:51:00,27.5,23.3,29.92,NW,315,0.0,0.0,84,0.00,,,0.00,WUHU216HW,2013-02-14 13:51:00,
2013-02-14 08:56:00,27.7,23.5,29.93,NW,315,0.0,0.0,84,0.00,,,0.00,WUHU216HW,2013-02-14 13:56:00,
2013-02-14 09:01:00,27.7,23.5,29.93,NW,315,0.0,0.0,84,0.00,,,0.00,WUHU216HW,2013-02-14 14:01:00,
2013-02-14 09:06:00,27.9,23.7,29.93,NW,315,0.0,0.0,84,0.00,,,0.00,WUHU216HW,2013-02-14 14:06:00,
2013-02-14 09:11:00,28.1,23.9,29.92,NW,315,0.0,0.0,84,0.00,,,0.00,WUHU216HW,2013-02-14 14:11:00,
2013-02-14 09:16:00,28.3,24.3,29.93,NW,315,0.0,0.0,85,0.00,,,0.00,WUHU216HW,2013-02-14 14:16:00,
2013-02-14 09:21:00,28.4,24.5,29.92,NW,315,0.0,0.0,85,0.00,,,0.00,WUHU216HW,2013-02-14 14:21:00,
2013-02-14 09:26:00,28.6,24.7,29.92,NW,315,0.0,0.0,85,0.00,,,0.00,WUHU216HW,2013-02-14 14:26:00,
2013-02-14 09:31:00,29.0,24.8,29.92,NW,315,0.0,0.2,84,0.00,,,0.00,WUHU216HW,2013-02-14 14:31:00,
2013-02-14 09:36:00,29.2,24.9,29.92,NW,315,0.0,0.2,84,0.00,,,0.00,WUHU216HW,2013-02-14 14:36:00,
2013-02-14 09:41:00,29.5,25.0,29.92,NW,315,0.0,0.0,83,0.00,,,0.00,WUHU216HW,2013-02-14 14:41:00,
2013-02-14 09:46:00,29.9,25.4,29.92,NW,315,0.0,0.0,83,0.00,,,0.00,WUHU216HW,2013-02-14 14:46:00,
2013-02-14 09:51:00,30.2,25.8,29.92,NW,315,0.0,0.0,83,0.00,,,0.00,WUHU216HW,2013-02-14 14:51:00,
2013-02-14 09:56:00,30.6,25.7,29.92,NW,315,0.0,0.0,82,0.00,,,0.00,WUHU216HW,2013-02-14 14:56:00,
2013-02-14 10:01:00,31.1,26.0,29.92,NW,315,0.0,0.0,81,0.00,,,0.00,WUHU216HW,2013-02-14 15:01:00,
2013-02-14 10:06:00,31.3,26.2,29.93,NW,315,0.0,0.0,81,0.00,,,0.00,WUHU216HW,2013-02-14 15:06:00,
2013-02-14 10:11:00,31.7,26.3,29.92,NW,315,0.0,0.0,80,0.00,,,0.00,WUHU216HW,2013-02-14 15:11:00,
2013-02-14 10:16:00,32.0,26.6,29.91,NW,315,0.0,0.0,80,0.00,,,0.00,WUHU216HW,2013-02-14 15:16:00,
2013-02-14 10:21:00,32.6,27.1,29.91,NW,315,0.0,0.0,80,0.00,,,0.00,WUHU216HW,2013-02-14 15:21:00,
2013-02-14 10:26:00,33.1,27.0,29.91,NW,315,0.0,0.0,78,0.00,,,0.00,WUHU216HW,2013-02-14 15:26:00,
2013-02-14 10:31:00,33.5,27.0,29.91,NW,315,0.0,0.0,77,0.00,,,0.00,WUHU216HW,2013-02-14 15:31:00,
2013-02-14 10:36:00,34.0,27.2,29.90,NW,315,0.0,0.4,76,0.00,,,0.00,WUHU216HW,2013-02-14 15:36:00,
2013-02-14 10:41:00,34.7,27.5,29.91,NW,315,0.0,0.4,75,0.00,,,0.00,WUHU216HW,2013-02-14 15:41:00,
2013-02-14 10:46:00,36.4,26.5,29.91,SSE,158,0.9,2.0,67,0.00,,,0.00,WUHU216HW,2013-02-14 15:46:00,
2013-02-14 10:51:00,38.2,30.0,29.92,South,180,0.0,2.0,72,0.00,,,0.00,WUHU216HW,2013-02-14 15:51:00,
2013-02-14 10:56:00,40.3,32.0,29.92,ESE,113,0.0,0.4,72,0.00,,,0.00,WUHU216HW,2013-02-14 15:56:00,
2013-02-14 11:01:00,41.0,32.0,29.93,ESE,113,0.0,0.0,70,0.00,,,0.00,WUHU216HW,2013-02-14 16:01:00,
2013-02-14 11:06:00,41.2,31.9,29.93,SE,135,0.0,1.3,69,0.00,,,0.00,WUHU216HW,2013-02-14 16:06:00,
2013-02-14 11:11:00,41.2,31.9,29.92,SE,135,0.0,1.3,69,0.00,,,0.00,WUHU216HW,2013-02-14 16:11:00,
2013-02-14 11:16:00,40.7,31.0,29.92,SE,135,0.0,0.0,68,0.00,,,0.00,WUHU216HW,2013-02-14 16:16:00,
2013-02-14 11:21:00,40.0,26.7,29.92,SSW,203,0.4,0.4,59,0.00,,,0.00,WUHU216HW,2013-02-14 16:21:00,
2013-02-14 11:26:00,40.0,24.1,29.92,SSW,203,0.4,1.1,53,0.00,,,0.00,WUHU216HW,2013-02-14 16:26:00,
2013-02-14 11:31:00,40.0,22.8,29.92,SE,135,0.7,1.1,50,0.00,,,0.00,WUHU216HW,2013-02-14 16:31:00,
2013-02-14 11:36:00,40.5,23.3,29.92,SW,225,0.2,1.3,50,0.00,,,0.00,WUHU216HW,2013-02-14 16:36:00,
2013-02-14 11:41:00,40.9,24.5,29.92,ESE,113,0.0,1.3,52,0.00,,,0.00,WUHU216HW,2013-02-14 16:41:00,
2013-02-14 11:46:00,41.2,23.4,29.93,West,270,0.0,1.1,49,0.00,,,0.00,WUHU216HW,2013-02-14 16:46:00,
2013-02-14 11:51:00,41.4,23.6,29.93,SSW,203,1.1,1.6,49,0.00,,,0.00,WUHU216HW,2013-02-14 16:51:00,
2013-02-14 11:56:00,41.8,23.9,29.92,SE,135,0.7,1.6,49,0.00,,,0.00,WUHU216HW,2013-02-14 16:56:00,
2013-02-14 12:01:00,41.8,23.4,29.93,South,180,1.6,1.8,48,0.00,,,0.00,WUHU216HW,2013-02-14 17:01:00,
2013-02-14 12:06:00,41.8,22.3,29.93,SSE,158,0.7,1.8,46,0.00,,,0.00,WUHU216HW,2013-02-14 17:06:00,
2013-02-14 12:11:00,41.8,22.9,29.92,West,270,1.8,1.8,47,0.00,,,0.00,WUHU216HW,2013-02-14 17:11:00,
2013-02-14 12:16:00,41.9,24.1,29.92,West,270,0.2,1.8,49,0.00,,,0.00,WUHU216HW,2013-02-14 17:16:00,
2013-02-14 12:21:00,42.1,23.8,29.92,West,270,0.9,0.9,48,0.00,,,0.00,WUHU216HW,2013-02-14 17:21:00,
2013-02-14 12:26:00,42.3,26.4,29.93,West,270,0.4,0.9,53,0.00,,,0.00,WUHU216HW,2013-02-14 17:26:00,
2013-02-14 12:31:00,42.8,26.8,29.92,WNW,293,0.4,1.1,53,0.00,,,0.00,WUHU216HW,2013-02-14 17:31:00,
2013-02-14 12:36:00,42.8,25.6,29.93,ESE,113,0.4,1.3,50,0.00,,,0.00,WUHU216HW,2013-02-14 17:36:00,
2013-02-14 12:41:00,43.0,26.6,29.92,West,270,0.4,1.3,52,0.00,,,0.00,WUHU216HW,2013-02-14 17:41:00,
2013-02-14 12:46:00,43.4,23.9,29.92,SSW,203,1.8,2.5,46,0.00,,,0.00,WUHU216HW,2013-02-14 17:46:00,
2013-02-14 12:51:00,43.6,26.6,29.91,West,270,1.3,2.5,51,0.00,,,0.00,WUHU216HW,2013-02-14 17:51:00,
2013-02-14 12:56:00,44.6,25.6,29.91,SE,135,0.9,1.6,47,0.00,,,0.00,WUHU216HW,2013-02-14 17:56:00,
2013-02-14 13:01:00,44.8,25.8,29.91,WNW,293,0.9,1.1,47,0.00,,,0.00,WUHU216HW,2013-02-14 18:01:00,
2013-02-14 13:06:00,45.7,27.1,29.89,NW,315,0.0,1.1,48,0.00,,,0.00,WUHU216HW,2013-02-14 18:06:00,
2013-02-14 13:11:00,47.2,29.4,29.90,WSW,248,0.0,0.9,50,0.00,,,0.00,WUHU216HW,2013-02-14 18:11:00,
2013-02-14 13:16:00,48.8,29.4,29.89,NW,315,0.9,0.9,47,0.00,,,0.00,WUHU216HW,2013-02-14 18:16:00,
2013-02-14 13:21:00,50.8,31.8,29.89,WNW,293,0.2,0.9,48,0.00,,,0.00,WUHU216HW,2013-02-14 18:21:00,
2013-02-14 13:26:00,52.0,29.0,29.89,SSE,158,1.1,1.1,41,0.00,,,0.00,WUHU216HW,2013-02-14 18:26:00,
2013-02-14 13:31:00,51.3,30.0,29.89,WSW,248,0.0,1.1,44,0.00,,,0.00,WUHU216HW,2013-02-14 18:31:00,
2013-02-14 13:36:00,52.6,27.5,29.89,WNW,293,0.2,1.1,38,0.00,,,0.00,WUHU216HW,2013-02-14 18:36:00,
2013-02-14 13:41:00,50.0,22.5,29.88,NNE,23,1.6,1.6,34,0.00,,,0.00,WUHU216HW,2013-02-14 18:41:00,
2013-02-14 13:46:00,49.7,20.9,29.87,SSW,203,0.9,1.6,32,0.00,,,0.00,WUHU216HW,2013-02-14 18:46:00,
2013-02-14 13:51:00,49.0,20.3,29.87,WSW,248,1.8,1.8,32,0.00,,,0.00,WUHU216HW,2013-02-14 18:51:00,
2013-02-14 13:56:00,48.4,17.6,29.88,WSW,248,1.6,2.0,29,0.00,,,0.00,WUHU216HW,2013-02-14 18:56:00,
2013-02-14 14:01:00,48.8,22.9,29.88,West,270,0.9,2.0,36,0.00,,,0.00,WUHU216HW,2013-02-14 19:01:00,
2013-02-14 14:06:00,50.2,22.7,29.88,NW,315,0.0,1.1,34,0.00,,,0.00,WUHU216HW,2013-02-14 19:06:00,
2013-02-14 14:11:00,51.3,27.1,29.90,SE,135,1.1,1.1,39,0.00,,,0.00,WUHU216HW,2013-02-14 19:11:00,
2013-02-14 14:16:00,51.5,30.2,29.89,SE,135,1.8,3.1,44,0.00,,,0.00,WUHU216HW,2013-02-14 19:16:00,
2013-02-14 14:21:00,50.8,30.6,29.91,SW,225,1.6,3.1,46,0.00,,,0.00,WUHU216HW,2013-02-14 19:21:00,
2013-02-14 14:27:00,49.3,30.4,29.90,SSW,203,0.0,2.0,48,0.00,,,0.00,WUHU216HW,2013-02-14 19:27:00,
2013-02-14 14:32:00,49.7,31.3,29.90,NW,315,0.0,1.3,49,0.00,,,0.00,WUHU216HW,2013-02-14 19:32:00,
2013-02-14 14:37:00,51.7,32.6,29.90,West,270,1.6,1.6,48,0.00,,,0.00,WUHU216HW,2013-02-14 19:37:00,
2013-02-14 14:42:00,50.4,29.8,29.90,NNE,23,1.8,2.2,45,0.00,,,0.00,WUHU216HW,2013-02-14 19:42:00,
2013-02-14 14:47:00,47.9,29.5,29.91,NE,45,0.4,2.2,49,0.00,,,0.00,WUHU216HW,2013-02-14 19:47:00,
2013-02-14 14:52:00,47.7,30.9,29.90,West,270,0.0,1.6,52,0.00,,,0.00,WUHU216HW,2013-02-14 19:52:00,
2013-02-14 14:57:00,50.2,32.4,29.90,SE,135,1.3,1.3,50,0.00,,,0.00,WUHU216HW,2013-02-14 19:57:00,
2013-02-14 15:02:00,50.9,31.3,29.90,SSW,203,0.2,1.3,47,0.00,,,0.00,WUHU216HW,2013-02-14 20:02:00,
2013-02-14 15:07:00,50.8,31.2,29.91,WNW,293,0.4,1.3,47,0.00,,,0.00,WUHU216HW,2013-02-14 20:07:00,
2013-02-14 15:12:00,50.8,31.2,29.90,NW,315,0.0,1.3,47,0.00,,,0.00,WUHU216HW,2013-02-14 20:12:00,
2013-02-14 15:17:00,51.7,31.4,29.90,WNW,293,1.1,1.1,46,0.00,,,0.00,WUHU216HW,2013-02-14 20:17:00,
2013-02-14 15:22:00,50.6,31.1,29.91,WNW,293,0.0,1.1,47,0.00,,,0.00,WUHU216HW,2013-02-14 20:22:00,
2013-02-14 15:27:00,50.2,31.2,29.90,SE,135,2.0,3.4,48,0.00,,,0.00,WUHU216HW,2013-02-14 20:27:00,
2013-02-14 15:32:00,49.7,30.8,29.89,West,270,0.7,3.4,48,0.00,,,0.00,WUHU216HW,2013-02-14 20:32:00,
2013-02-14 15:37:00,50.0,30.5,29.90,SSW,203,1.1,3.4,47,0.00,,,0.00,WUHU216HW,2013-02-14 20:37:00,
2013-02-14 15:42:00,49.5,30.1,29.89,WSW,248,1.1,2.0,47,0.00,,,0.00,WUHU216HW,2013-02-14 20:42:00,
2013-02-14 15:47:00,48.1,29.2,29.89,ESE,113,0.2,3.4,48,0.00,,,0.00,WUHU216HW,2013-02-14 20:47:00,
2013-02-14 15:52:00,49.3,31.5,29.90,West,270,0.0,3.4,50,0.00,,,0.00,WUHU216HW,2013-02-14 20:52:00,
2013-02-14 15:57:00,51.3,32.2,29.89,NNW,338,0.4,1.1,48,0.00,,,0.00,WUHU216HW,2013-02-14 20:57:00,
2013-02-14 16:02:00,51.3,30.6,29.89,NW,315,0.0,1.1,45,0.00,,,0.00,WUHU216HW,2013-02-14 21:02:00,
2013-02-14 16:07:00,50.6,29.3,29.89,WSW,248,1.1,1.1,44,0.00,,,0.00,WUHU216HW,2013-02-14 21:07:00,
2013-02-14 16:12:00,49.5,27.8,29.90,WSW,248,1.1,1.1,43,0.00,,,0.00,WUHU216HW,2013-02-14 21:12:00,
2013-02-14 16:17:00,49.3,27.1,29.91,NNE,23,0.9,1.1,42,0.00,,,0.00,WUHU216HW,2013-02-14 21:17:00,
2013-02-14 16:22:00,49.9,26.5,29.90,West,270,0.7,1.3,40,0.00,,,0.00,WUHU216HW,2013-02-14 21:22:00,
2013-02-14 16:27:00,49.7,26.3,29.91,NW,315,0.4,2.5,40,0.00,,,0.00,WUHU216HW,2013-02-14 21:27:00,
2013-02-14 16:32:00,49.3,26.0,29.91,NNW,338,1.1,2.5,40,0.00,,,0.00,WUHU216HW,2013-02-14 21:32:00,
2013-02-14 16:37:00,49.1,25.8,29.91,WNW,293,0.7,1.6,40,0.00,,,0.00,WUHU216HW,2013-02-14 21:37:00,
2013-02-14 16:42:00,49.0,26.2,29.90,West,270,2.5,2.5,41,0.00,,,0.00,WUHU216HW,2013-02-14 21:42:00,
2013-02-14 16:47:00,49.0,26.7,29.91,West,270,0.4,2.5,42,0.00,,,0.00,WUHU216HW,2013-02-14 21:47:00,
2013-02-14 16:52:00,49.3,27.6,29.91,NW,315,0.2,0.4,43,0.00,,,0.00,WUHU216HW,2013-02-14 21:52:00,
2013-02-14 16:57:00,49.5,27.3,29.90,West,270,1.1,1.1,42,0.00,,,0.00,WUHU216HW,2013-02-14 21:57:00,
2013-02-14 17:02:00,49.3,27.6,29.90,WSW,248,0.4,1.1,43,0.00,,,0.00,WUHU216HW,2013-02-14 22:02:00,
2013-02-14 17:07:00,49.0,27.9,29.90,NNW,338,0.0,1.1,44,0.00,,,0.00,WUHU216HW,2013-02-14 22:07:00,
2013-02-14 17:12:00,49.0,27.3,29.90,NNW,338,0.4,0.4,43,0.00,,,0.00,WUHU216HW,2013-02-14 22:12:00,
2013-02-14 17:17:00,49.1,27.5,29.91,NW,315,0.0,1.1,43,0.00,,,0.00,WUHU216HW,2013-02-14 22:17:00,
2013-02-14 17:22:00,49.1,27.5,29.89,NW,315,0.0,1.1,43,0.00,,,0.00,WUHU216HW,2013-02-14 22:22:00,
2013-02-14 17:27:00,49.3,27.6,29.90,WSW,248,0.0,0.4,43,0.00,,,0.00,WUHU216HW,2013-02-14 22:27:00,
2013-02-14 17:32:00,49.3,28.2,29.91,WNW,293,0.2,0.4,44,0.00,,,0.00,WUHU216HW,2013-02-14 22:32:00,
2013-02-14 17:37:00,49.3,27.6,29.91,NNW,338,0.0,0.4,43,0.00,,,0.00,WUHU216HW,2013-02-14 22:37:00,
2013-02-14 17:42:00,49.0,27.9,29.90,WNW,293,0.2,0.2,44,0.00,,,0.00,WUHU216HW,2013-02-14 22:42:00,
2013-02-14 17:47:00,48.2,27.2,29.90,SW,225,0.0,0.4,44,0.00,,,0.00,WUHU216HW,2013-02-14 22:47:00,
2013-02-14 17:52:00,47.5,27.1,29.91,SW,225,0.0,0.4,45,0.00,,,0.00,WUHU216HW,2013-02-14 22:52:00,
2013-02-14 17:57:00,47.0,27.1,29.91,WNW,293,0.2,0.2,46,0.00,,,0.00,WUHU216HW,2013-02-14 22:57:00,
2013-02-14 18:02:00,46.4,26.6,29.91,ESE,113,0.0,0.2,46,0.00,,,0.00,WUHU216HW,2013-02-14 23:02:00,
2013-02-14 18:07:00,45.7,26.6,29.91,West,270,0.2,0.2,47,0.00,,,0.00,WUHU216HW,2013-02-14 23:07:00,
2013-02-14 18:12:00,45.0,25.9,29.92,WNW,293,0.0,0.2,47,0.00,,,0.00,WUHU216HW,2013-02-14 23:12:00,
2013-02-14 18:17:00,44.6,26.1,29.92,WNW,293,0.0,0.0,48,0.00,,,0.00,WUHU216HW,2013-02-14 23:17:00,
2013-02-14 18:22:00,44.3,26.3,29.91,WNW,293,0.0,0.0,49,0.00,,,0.00,WUHU216HW,2013-02-14 23:22:00,
2013-02-14 18:27:00,43.7,25.8,29.92,WNW,293,0.0,0.0,49,0.00,,,0.00,WUHU216HW,2013-02-14 23:27:00,
2013-02-14 18:32:00,43.2,25.9,29.92,WNW,293,0.0,0.0,50,0.00,,,0.00,WUHU216HW,2013-02-14 23:32:00,
2013-02-14 18:37:00,42.8,26.0,29.92,WNW,293,0.0,0.2,51,0.00,,,0.00,WUHU216HW,2013-02-14 23:37:00,
2013-02-14 18:42:00,42.1,24.8,29.93,WNW,293,0.0,0.2,50,0.00,,,0.00,WUHU216HW,2013-02-14 23:42:00,
2013-02-14 18:47:00,42.1,25.3,29.93,WNW,293,0.0,1.1,51,0.00,,,0.00,WUHU216HW,2013-02-14 23:47:00,
2013-02-14 18:52:00,41.9,25.1,29.93,WNW,293,0.0,1.1,51,0.00,,,0.00,WUHU216HW,2013-02-14 23:52:00,
2013-02-14 18:57:00,41.9,25.1,29.92,WNW,293,0.0,0.2,51,0.00,,,0.00,WUHU216HW,2013-02-14 23:57:00,
2013-02-14 19:02:00,41.8,24.9,29.92,WNW,293,0.0,0.0,51,0.00,,,0.00,WUHU216HW,2013-02-15 00:02:00,
2013-02-14 19:07:00,41.6,24.8,29.92,WNW,293,0.0,0.4,51,0.00,,,0.00,WUHU216HW,2013-02-15 00:07:00,
2013-02-14 19:12:00,41.4,25.0,29.92,NNW,338,0.2,0.4,52,0.00,,,0.00,WUHU216HW,2013-02-15 00:12:00,
2013-02-14 19:17:00,41.2,24.9,29.91,NW,315,0.0,0.2,52,0.00,,,0.00,WUHU216HW,2013-02-15 00:17:00,
2013-02-14 19:22:00,40.9,24.5,29.92,NW,315,0.0,0.0,52,0.00,,,0.00,WUHU216HW,2013-02-15 00:22:00,
2013-02-14 19:27:00,40.5,24.6,29.92,NW,315,0.0,0.0,53,0.00,,,0.00,WUHU216HW,2013-02-15 00:27:00,
2013-02-14 19:32:00,40.3,24.5,29.92,NW,315,0.0,0.0,53,0.00,,,0.00,WUHU216HW,2013-02-15 00:32:00,
2013-02-14 19:37:00,40.1,24.3,29.92,NW,315,0.0,0.0,53,0.00,,,0.00,WUHU216HW,2013-02-15 00:37:00,
2013-02-14 19:42:00,40.0,24.1,29.93,NW,315,0.0,0.0,53,0.00,,,0.00,WUHU216HW,2013-02-15 00:42:00,
2013-02-14 19:47:00,39.4,24.0,29.93,NW,315,0.0,0.0,54,0.00,,,0.00,WUHU216HW,2013-02-15 00:47:00,
2013-02-14 19:52:00,39.2,23.9,29.93,NW,315,0.0,0.0,54,0.00,,,0.00,WUHU216HW,2013-02-15 00:52:00,
2013-02-14 19:57:00,38.9,23.9,29.93,NW,315,0.0,0.0,55,0.00,,,0.00,WUHU216HW,2013-02-15 00:57:00,
2013-02-14 20:02:00,38.5,24.1,29.93,NW,315,0.0,0.0,56,0.00,,,0.00,WUHU216HW,2013-02-15 01:02:00,
2013-02-14 20:07:00,38.2,23.8,29.93,NW,315,0.0,0.0,56,0.00,,,0.00,WUHU216HW,2013-02-15 01:07:00,
2013-02-14 20:12:00,37.8,23.9,29.93,NW,315,0.0,0.0,57,0.00,,,0.00,WUHU216HW,2013-02-15 01:12:00,
2013-02-14 20:17:00,37.6,24.1,29.93,NW,315,0.0,0.0,58,0.00,,,0.00,WUHU216HW,2013-02-15 01:17:00,
2013-02-14 20:22:00,37.6,24.1,29.93,NW,315,0.0,0.0,58,0.00,,,0.00,WUHU216HW,2013-02-15 01:22:00,
2013-02-14 20:27:00,37.8,24.3,29.93,NW,315,0.0,0.0,58,0.00,,,0.00,WUHU216HW,2013-02-15 01:27:00,
2013-02-14 20:32:00,37.8,24.3,29.92,NW,315,0.0,0.0,58,0.00,,,0.00,WUHU216HW,2013-02-15 01:32:00,
2013-02-14 20:37:00,37.8,24.3,29.93,NW,315,0.0,0.0,58,0.00,,,0.00,WUHU216HW,2013-02-15 01:37:00,
2013-02-14 20:42:00,38.0,24.5,29.92,WNW,293,0.0,0.4,58,0.00,,,0.00,WUHU216HW,2013-02-15 01:42:00,
2013-02-14 20:47:00,38.2,24.7,29.93,WNW,293,0.0,0.4,58,0.00,,,0.00,WUHU216HW,2013-02-15 01:47:00,
2013-02-14 20:52:00,38.2,25.0,29.93,South,180,0.0,0.4,59,0.00,,,0.00,WUHU216HW,2013-02-15 01:52:00,
2013-02-14 20:57:00,38.2,25.0,29.93,SSE,158,0.7,0.7,59,0.00,,,0.00,WUHU216HW,2013-02-15 01:57:00,
2013-02-14 21:02:00,38.2,25.0,29.93,SSE,158,0.0,0.7,59,0.00,,,0.00,WUHU216HW,2013-02-15 02:02:00,
2013-02-14 21:07:00,38.2,25.0,29.94,SE,135,0.0,0.7,59,0.00,,,0.00,WUHU216HW,2013-02-15 02:07:00,
2013-02-14 21:12:00,37.8,25.2,29.94,WSW,248,0.0,0.7,60,0.00,,,0.00,WUHU216HW,2013-02-15 02:12:00,
2013-02-14 21:17:00,37.6,25.0,29.94,WSW,248,0.0,0.4,60,0.00,,,0.00,WUHU216HW,2013-02-15 02:17:00,
2013-02-14 21:22:00,37.4,24.8,29.94,WSW,248,0.0,0.4,60,0.00,,,0.00,WUHU216HW,2013-02-15 02:22:00,
2013-02-14 21:27:00,37.4,24.8,29.94,West,270,0.0,0.4,60,0.00,,,0.00,WUHU216HW,2013-02-15 02:27:00,
2013-02-14 21:32:00,37.3,24.7,29.94,West,270,0.0,0.4,60,0.00,,,0.00,WUHU216HW,2013-02-15 02:32:00,
2013-02-14 21:37:00,37.1,24.9,29.95,West,270,0.9,0.9,61,0.00,,,0.00,WUHU216HW,2013-02-15 02:37:00,
2013-02-14 21:42:00,36.9,24.8,29.94,West,270,0.0,0.9,61,0.00,,,0.00,WUHU216HW,2013-02-15 02:42:00,
2013-02-14 21:47:00,36.5,24.4,29.95,West,270,0.0,0.4,61,0.00,,,0.00,WUHU216HW,2013-02-15 02:47:00,
2013-02-14 21:52:00,36.4,24.6,29.96,West,270,0.0,0.0,62,0.00,,,0.00,WUHU216HW,2013-02-15 02:52:00,
2013-02-14 21:57:00,35.8,24.1,29.94,West,270,0.0,0.0,62,0.00,,,0.00,WUHU216HW,2013-02-15 02:57:00,
2013-02-14 22:02:00,35.5,23.8,29.96,West,270,0.0,0.0,62,0.00,,,0.00,WUHU216HW,2013-02-15 03:02:00,
2013-02-14 22:07:00,35.1,23.4,29.94,West,270,0.0,0.0,62,0.00,,,0.00,WUHU216HW,2013-02-15 03:07:00,
2013-02-14 22:12:00,34.9,23.6,29.95,West,270,0.0,0.0,63,0.00,,,0.00,WUHU216HW,2013-02-15 03:12:00,
2013-02-14 22:17:00,34.7,23.8,29.96,West,270,0.0,0.0,64,0.00,,,0.00,WUHU216HW,2013-02-15 03:17:00,
2013-02-14 22:22:00,34.4,23.8,29.94,WSW,248,0.4,0.4,65,0.00,,,0.00,WUHU216HW,2013-02-15 03:22:00,
2013-02-14 22:27:00,34.2,23.6,29.95,WSW,248,0.0,0.4,65,0.00,,,0.00,WUHU216HW,2013-02-15 03:27:00,
2013-02-14 22:32:00,33.8,23.6,29.96,South,180,0.0,0.7,66,0.00,,,0.00,WUHU216HW,2013-02-15 03:32:00,
2013-02-14 22:37:00,33.8,23.6,29.94,South,180,0.0,0.7,66,0.00,,,0.00,WUHU216HW,2013-02-15 03:37:00,
2013-02-14 22:42:00,33.5,23.6,29.95,South,180,0.2,0.2,67,0.00,,,0.00,WUHU216HW,2013-02-15 03:42:00,
2013-02-14 22:47:00,33.3,23.5,29.95,South,180,0.0,0.2,67,0.00,,,0.00,WUHU216HW,2013-02-15 03:47:00,
2013-02-14 22:52:00,32.9,23.1,29.95,South,180,0.0,0.0,67,0.00,,,0.00,WUHU216HW,2013-02-15 03:52:00,
2013-02-14 22:57:00,32.8,23.3,29.95,South,180,0.0,0.0,68,0.00,,,0.00,WUHU216HW,2013-02-15 03:57:00,
2013-02-14 23:02:00,32.6,23.1,29.95,South,180,0.0,0.0,68,0.00,,,0.00,WUHU216HW,2013-02-15 04:02:00,
2013-02-14 23:07:00,32.4,23.4,29.95,South,180,0.0,0.0,69,0.00,,,0.00,WUHU216HW,2013-02-15 04:07:00,
2013-02-14 23:12:00,32.6,23.9,29.95,South,180,0.0,0.2,70,0.00,,,0.00,WUHU216HW,2013-02-15 04:12:00,
2013-02-14 23:17:00,32.4,23.4,29.96,South,180,0.0,0.2,69,0.00,,,0.00,WUHU216HW,2013-02-15 04:17:00,
2013-02-14 23:22:00,32.2,23.6,29.94,South,180,0.0,0.0,70,0.00,,,0.00,WUHU216HW,2013-02-15 04:22:00,
2013-02-14 23:27:00,32.2,23.2,29.95,South,180,0.0,0.0,69,0.00,,,0.00,WUHU216HW,2013-02-15 04:27:00,
2013-02-14 23:32:00,32.2,23.6,29.95,South,180,0.0,0.0,70,0.00,,,0.00,WUHU216HW,2013-02-15 04:32:00,
2013-02-14 23:37:00,32.8,24.0,29.94,South,180,0.0,0.0,70,0.00,,,0.00,WUHU216HW,2013-02-15 04:37:00,
2013-02-14 23:42:00,33.3,24.6,29.95,South,180,0.0,0.0,70,0.00,,,0.00,WUHU216HW,2013-02-15 04:42:00,
2013-02-14 23:47:00,33.5,25.0,29.95,South,180,0.0,0.0,71,0.00,,,0.00,WUHU216HW,2013-02-15 04:47:00,
2013-02-14 23:52:00,33.8,25.0,29.95,South,180,0.0,0.0,70,0.00,,,0.00,WUHU216HW,2013-02-15 04:52:00,
2013-02-14 23:57:00,34.0,25.2,29.96,South,180,0.0,0.0,70,0.00,,,0.00,WUHU216HW,2013-02-15 04:57:00,